QPF
0.00 0.00 0.00 0.00 0.00 0.00 0.00 0.00 0.00 0.00 0.00 0.00 0.00 0.00 0.00 0.00 0.00 0.00 0.00 0.00 0.00 0.00 0.00 0.00 0.00 0.00 0.00 0.00 0.01 0.02 0.03 0.03 0.03 0.04 0.06 0.07 0.06 0.07 0.08 0.10 0.10 0.08 0.07 0.08
0.00 0.00 0.00 0.00 0.00 0.00 0.00 0.00 0.00 0.00 0.00 0.00 0.00 0.00 0.00 0.00 0.00 0.00 0.00 0.00 0.00 0.00 0.00 0.01 0.01 0.00 0.00 0.00 0.01 0.02 0.03 0.03 0.03 0.03 0.06 0.07 0.08 0.08 0.12 0.14 0.12 0.10 0.10 0.10
0.00 0.00 0.00 0.00 0.00 0.00 0.00 0.00 0.00 0.00 0.00 0.00 0.00 0.00 0.00 0.00 0.00 0.00 0.00 0.00 0.00 0.00 0.00 0.01 0.01 0.01 0.01 0.01 0.02 0.02 0.03 0.04 0.03 0.04 0.06 0.07 0.10 0.10 0.12 0.14 0.14 0.12 0.13 0.13
0.00 0.00 0.00 0.00 0.00 0.00 0.00 0.00 0.00 0.00 0.00 0.00 0.00 0.00 0.00 0.00 0.00 0.00 0.00 0.00 0.00 0.00 0.00 0.00 0.01 0.02 0.04 0.02 0.02 0.02 0.06 0.08 0.07 0.07 0.10 0.12 0.11 0.11 0.12 0.12 0.13 0.14 0.12 0.12
0.00 0.00 0.00 0.00 0.00 0.00 0.00 0.00 0.00 0.00 0.00 0.00 0.00 0.00 0.00 0.00 0.00 0.00 0.00 0.00 0.00 0.00 0.00 0.01 0.01 0.04 0.06 0.03 0.02 0.04 0.07 0.08 0.08 0.09 0.07 0.07 0.08 0.09 0.12 0.15 0.17 0.14 0.12 0.11
0.00 0.00 0.00 0.00 0.00 0.00 0.00 0.00 0.00 0.00 0.00 0.00 0.00 0.00 0.00 0.00 0.00 0.00 0.00 0.00 0.00 0.00 0.00 0.01 0.01 0.06 0.06 0.04 0.02 0.03 0.04 0.05 0.06 0.09 0.09 0.06 0.08 0.11 0.14 0.18 0.20 0.15 0.13 0.12
0.00 0.00 0.00 0.00 0.00 0.00 0.00 0.00 0.00 0.00 0.00 0.00 0.00 0.00 0.00 0.00 0.00 0.00 0.00 0.00 0.00 0.00 0.00 0.00 0.01 0.03 0.04 0.05 0.06 0.03 0.03 0.04 0.04 0.04 0.04 0.05 0.07 0.12 0.15 0.19 0.19 0.16 0.13 0.11
0.00 0.00 0.00 0.00 0.00 0.00 0.00 0.00 0.00 0.00 0.00 0.00 0.00 0.00 0.00 0.00 0.00 0.00 0.00 0.00 0.00 0.00 0.00 0.00 0.00 0.00 0.01 0.04 0.03 0.02 0.02 0.04 0.04 0.03 0.03 0.04 0.07 0.11 0.14 0.17 0.19 0.18 0.14 0.11
0.00 0.00 0.00 0.00 0.00 0.00 0.00 0.00 0.00 0.00 0.00 0.00 0.00 0.00 0.00 0.00 0.00 0.00 0.00 0.00 0.00 0.00 0.00 0.00 0.00 0.00 0.00 0.01 0.01 0.02 0.03 0.03 0.04 0.04 0.04 0.04 0.06 0.08 0.13 0.16 0.15 0.14 0.14 0.11
0.00 0.00 0.00 0.00 0.00 0.00 0.00 0.00 0.00 0.00 0.00 0.00 0.00 0.00 0.00 0.00 0.00 0.00 0.00 0.00 0.00 0.00 0.00 0.00 0.00 0.00 0.00 0.01 0.01 0.01 0.02 0.02 0.02 0.03 0.04 0.07 0.08 0.09 0.12 0.13 0.11 0.10 0.11 0.12
0.00 0.00 0.00 0.00 0.00 0.00 0.00 0.00 0.00 0.00 0.00 0.00 0.00 0.00 0.00 0.00 0.00 0.00 0.00 0.00 0.00 0.00 0.00 0.00 0.00 0.00 0.00 0.00 0.00 0.01 0.02 0.02 0.01 0.02 0.03 0.05 0.07 0.07 0.09 0.09 0.09 0.10 0.10 0.11
0.00 0.00 0.00 0.00 0.00 0.00 0.00 0.00 0.00 0.00 0.00 0.00 0.00 0.00 0.00 0.00 0.00 0.00 0.00 0.00 0.00 0.00 0.00 0.00 0.00 0.00 0.00 0.00 0.01 0.01 0.02 0.02 0.01 0.02 0.02 0.04 0.07 0.09 0.07 0.07 0.07 0.10 0.11 0.09
0.00 0.00 0.00 0.00 0.00 0.00 0.00 0.00 0.00 0.00 0.00 0.00 0.00 0.00 0.00 0.00 0.00 0.00 0.00 0.00 0.00 0.00 0.00 0.00 0.00 0.00 0.00 0.01 0.01 0.02 0.02 0.02 0.02 0.01 0.01 0.03 0.05 0.08 0.07 0.06 0.07 0.08 0.08 0.08
0.00 0.00 0.00 0.00 0.00 0.00 0.00 0.00 0.00 0.00 0.00 0.00 0.00 0.00 0.00 0.00 0.00 0.00 0.00 0.00 0.00 0.00 0.00 0.00 0.01 0.00 0.01 0.01 0.02 0.02 0.01 0.01 0.02 0.02 0.02 0.03 0.04 0.04 0.05 0.05 0.05 0.06 0.06 0.06
0.00 0.00 0.00 0.00 0.00 0.00 0.00 0.00 0.00 0.00 0.00 0.00 0.00 0.00 0.00 0.00 0.00 0.00 0.00 0.00 0.00 0.00 0.00 0.00 0.00 0.00 0.01 0.01 0.01 0.01 0.01 0.01 0.02 0.03 0.02 0.04 0.06 0.05 0.04 0.04 0.05 0.06 0.06 0.06
0.00 0.00 0.00 0.00 0.00 0.00 0.00 0.00 0.00 0.00 0.00 0.00 0.00 0.00 0.00 0.00 0.00 0.00 0.00 0.00 0.00 0.00 0.00 0.00 0.00 0.01 0.01 0.01 0.01 0.01 0.01 0.01 0.03 0.04 0.04 0.04 0.04 0.05 0.03 0.03 0.04 0.04 0.05 0.05
0.00 0.00 0.00 0.00 0.00 0.00 0.00 0.00 0.00 0.00 0.00 0.00 0.00 0.00 0.00 0.00 0.00 0.00 0.00 0.00 0.00 0.00 0.01 0.01 0.01 0.02 0.02 0.01 0.01 0.01 0.01 0.01 0.01 0.02 0.02 0.03 0.03 0.03 0.03 0.03 0.03 0.04 0.06 0.06
0.00 0.00 0.00 0.00 0.00 0.00 0.00 0.00 0.00 0.00 0.00 0.00 0.00 0.00 0.00 0.00 0.00 0.00 0.00 0.00 0.00 0.00 0.01 0.01 0.01 0.01 0.01 0.01 0.01 0.01 0.01 0.01 0.01 0.01 0.02 0.03 0.02 0.02 0.02 0.03 0.03 0.05 0.05 0.08
0.00 0.00 0.00 0.00 0.00 0.00 0.00 0.00 0.00 0.00 0.00 0.00 0.00 0.00 0.00 0.00 0.00 0.00 0.00 0.01 0.01 0.00 0.00 0.01 0.01 0.02 0.01 0.01 0.01 0.01 0.01 0.01 0.02 0.02 0.01 0.02 0.01 0.01 0.01 0.02 0.04 0.04 0.04 0.07
0.00 0.00 0.00 0.00 0.00 0.00 0.00 0.00 0.00 0.00 0.00 0.00 0.00 0.00 0.00 0.01 0.01 0.01 0.01 0.01 0.01 0.01 0.01 0.01 0.02 0.03 0.02 0.01 0.01 0.01 0.01 0.01 0.01 0.01 0.01 0.01 0.01 0.01 0.01 0.02 0.02 0.02 0.02 0.03
0.00 0.00 0.00 0.00 0.00 0.00 0.00 0.00 0.00 0.00 0.00 0.00 0.00 0.00 0.00 0.01 0.01 0.01 0.01 0.00 0.00 0.01 0.01 0.01 0.02 0.03 0.03 0.03 0.02 0.01 0.01 0.01 0.01 0.01 0.01 0.01 0.00 0.01 0.02 0.02 0.02 0.02 0.02 0.02
0.00 0.00 0.00 0.00 0.00 0.00 0.00 0.00 0.00 0.00 0.00 0.00 0.00 0.00 0.01 0.01 0.00 0.01 0.01 0.00 0.00 0.01 0.01 0.02 0.02 0.04 0.04 0.04 0.02 0.02 0.01 0.01 0.01 0.01 0.01 0.01 0.01 0.01 0.02 0.02 0.02 0.02 0.02 0.02
0.00 0.00 0.00 0.00 0.00 0.00 0.00 0.00 0.00 0.00 0.00 0.00 0.00 0.00 0.00 0.00 0.00 0.00 0.00 0.00 0.00 0.01 0.01 0.02 0.02 0.03 0.03 0.04 0.05 0.03 0.02 0.02 0.01 0.02 0.02 0.02 0.01 0.03 0.04 0.05 0.05 0.03 0.02 0.02
0.00 0.00 0.00 0.01 0.00 0.00 0.00 0.00 0.00 0.00 0.00 0.00 0.00 0.00 0.00 0.00 0.00 0.00 0.00 0.00 0.01 0.01 0.02 0.02 0.02 0.03 0.02 0.02 0.04 0.04 0.03 0.03 0.02 0.02 0.02 0.01 0.02 0.03 0.04 0.04 0.03 0.02 0.01 0.01
0.01 0.01 0.01 0.01 0.00 0.00 0.00 0.00 0.00 0.00 0.00 0.00 0.00 0.00 0.00 0.00 0.00 0.01 0.01 0.01 0.03 0.03 0.03 0.02 0.02 0.02 0.02 0.01 0.02 0.02 0.02 0.03 0.03 0.02 0.01 0.01 0.01 0.01 0.01 0.01 0.01 0.01 0.01 0.01
0.01 0.01 0.01 0.01 0.01 0.00 0.00 0.00 0.00 0.01 0.01 0.01 0.00 0.00 0.00 0.00 0.00 0.01 0.01 0.02 0.03 0.04 0.03 0.03 0.02 0.02 0.02 0.02 0.02 0.01 0.02 0.03 0.03 0.02 0.01 0.02 0.01 0.01 0.01 0.01 0.01 0.01 0.01 0.01
MSLP
1012.34 1012.84 1013.26 1013.57 1013.78 1013.87 1013.85 1013.72 1013.50 1013.19 1012.82 1012.43 1012.05 1011.74 1011.53 1011.46 1011.53 1011.73 1012.02 1012.37 1012.74 1013.07 1013.36 1013.61 1013.83 1014.05 1014.31 1014.62 1014.99 1015.39 1015.80 1016.17 1016.47 1016.66 1016.75 1016.76 1016.72 1016.68 1016.69 1016.76 1016.92 1017.16 1017.43 1017.72
1012.84 1013.27 1013.61 1013.85 1014.00 1014.07 1014.07 1013.99 1013.84 1013.60 1013.30 1012.95 1012.58 1012.23 1011.95 1011.76 1011.70 1011.77 1011.94 1012.20 1012.50 1012.80 1013.08 1013.33 1013.55 1013.78 1014.02 1014.31 1014.64 1015.01 1015.39 1015.76 1016.07 1016.31 1016.46 1016.53 1016.55 1016.55 1016.57 1016.64 1016.77 1016.96 1017.20 1017.46
1013.21 1013.55 1013.79 1013.96 1014.08 1014.15 1014.19 1014.18 1014.12 1013.99 1013.77 1013.47 1013.11 1012.71 1012.34 1012.02 1011.81 1011.72 1011.76 1011.91 1012.13 1012.40 1012.67 1012.94 1013.19 1013.43 1013.68 1013.95 1014.27 1014.61 1014.98 1015.35 1015.69 1015.97 1016.18 1016.31 1016.39 1016.43 1016.46 1016.52 1016.61 1016.75 1016.94 1017.15
1013.37 1013.62 1013.79 1013.90 1014.00 1014.09 1014.20 1014.30 1014.36 1014.34 1014.22 1013.97 1013.62 1013.17 1012.69 1012.23 1011.85 1011.59 1011.48 1011.51 1011.66 1011.89 1012.17 1012.46 1012.75 1013.03 1013.30 1013.58 1013.89 1014.23 1014.60 1014.97 1015.34 1015.66 1015.93 1016.13 1016.26 1016.33 1016.37 1016.40 1016.45 1016.53 1016.65 1016.80
1013.33 1013.50 1013.60 1013.68 1013.79 1013.94 1014.14 1014.36 1014.55 1014.67 1014.65 1014.46 1014.11 1013.61 1013.01 1012.40 1011.85 1011.41 1011.14 1011.05 1011.12 1011.33 1011.62 1011.95 1012.28 1012.61 1012.92 1013.22 1013.54 1013.88 1014.24 1014.63 1015.02 1015.39 1015.71 1015.96 1016.14 1016.24 1016.28 1016.28 1016.28 1016.29 1016.33 1016.41
1013.11 1013.21 1013.28 1013.37 1013.51 1013.73 1014.04 1014.39 1014.72 1014.96 1015.04 1014.91 1014.55 1014.00 1013.30 1012.54 1011.82 1011.22 1010.81 1010.61 1010.61 1010.79 1011.09 1011.46 1011.85 1012.22 1012.58 1012.91 1013.23 1013.57 1013.94 1014.33 1014.74 1015.13 1015.49 1015.79 1016.00 1016.12 1016.15 1016.13 1016.08 1016.02 1015.99 1016.00
1012.76 1012.84 1012.90 1013.01 1013.20 1013.51 1013.92 1014.40 1014.85 1015.20 1015.36 1015.28 1014.92 1014.32 1013.53 1012.65 1011.79 1011.06 1010.53 1010.23 1010.18 1010.34 1010.66 1011.07 1011.51 1011.93 1012.32 1012.67 1013.00 1013.33 1013.68 1014.06 1014.47 1014.88 1015.26 1015.58 1015.81 1015.95 1015.98 1015.93 1015.83 1015.71 1015.61 1015.55
1012.38 1012.45 1012.53 1012.67 1012.92 1013.30 1013.80 1014.37 1014.91 1015.34 1015.56 1015.51 1015.15 1014.52 1013.67 1012.71 1011.76 1010.93 1010.32 1009.97 1009.89 1010.05 1010.39 1010.84 1011.31 1011.77 1012.18 1012.53 1012.85 1013.15 1013.47 1013.83 1014.21 1014.61 1015.00 1015.33 1015.58 1015.72 1015.75 1015.68 1015.55 1015.38 1015.23 1015.11
1012.02 1012.12 1012.22 1012.40 1012.69 1013.11 1013.66 1014.27 1014.86 1015.32 1015.57 1015.54 1015.18 1014.54 1013.67 1012.67 1011.69 1010.83 1010.19 1009.83 1009.75 1009.93 1010.29 1010.77 1011.27 1011.74 1012.16 1012.50 1012.78 1013.05 1013.32 1013.63 1013.98 1014.35 1014.73 1015.06 1015.31 1015.46 1015.49 1015.41 1015.26 1015.07 1014.88 1014.73
1011.75 1011.87 1012.00 1012.20 1012.50 1012.93 1013.47 1014.07 1014.65 1015.11 1015.35 1015.32 1014.97 1014.34 1013.49 1012.52 1011.56 1010.73 1010.12 1009.78 1009.73 1009.93 1010.33 1010.83 1011.34 1011.82 1012.22 1012.53 1012.78 1012.99 1013.22 1013.47 1013.77 1014.11 1014.47 1014.79 1015.05 1015.20 1015.25 1015.18 1015.03 1014.84 1014.64 1014.47
1011.58 1011.73 1011.87 1012.06 1012.34 1012.73 1013.21 1013.75 1014.27 1014.67 1014.88 1014.84 1014.51 1013.92 1013.12 1012.22 1011.34 1010.58 1010.04 1009.77 1009.77 1010.01 1010.43 1010.94 1011.46 1011.93 1012.31 1012.59 1012.80 1012.97 1013.14 1013.35 1013.61 1013.92 1014.26 1014.58 1014.85 1015.03 1015.10 1015.06 1014.94 1014.76 1014.57 1014.40
1011.49 1011.65 1011.79 1011.96 1012.18 1012.49 1012.88 1013.31 1013.73 1014.05 1014.21 1014.14 1013.83 1013.30 1012.59 1011.79 1011.02 1010.37 1009.93 1009.73 1009.79 1010.07 1010.51 1011.02 1011.54 1011.99 1012.35 1012.61 1012.79 1012.93 1013.07 1013.26 1013.50 1013.81 1014.14 1014.47 1014.77 1014.98 1015.09 1015.10 1015.02 1014.88 1014.73 1014.58
1011.46 1011.61 1011.73 1011.85 1012.00 1012.21 1012.48 1012.79 1013.09 1013.32 1013.41 1013.33 1013.04 1012.57 1011.96 1011.29 1010.64 1010.11 1009.76 1009.64 1009.75 1010.05 1010.49 1010.99 1011.49 1011.93 1012.27 1012.53 1012.70 1012.85 1013.00 1013.19 1013.45 1013.77 1014.13 1014.49 1014.82 1015.08 1015.25 1015.32 1015.30 1015.22 1015.10 1014.99
1011.43 1011.58 1011.67 1011.74 1011.81 1011.92 1012.07 1012.26 1012.44 1012.58 1012.61 1012.51 1012.26 1011.86 1011.35 1010.79 1010.26 1009.83 1009.56 1009.49 1009.62 1009.92 1010.34 1010.81 1011.29 1011.71 1012.05 1012.32 1012.52 1012.70 1012.89 1013.13 1013.44 1013.81 1014.22 1014.63 1015.02 1015.34 1015.57 1015.70 1015.75 1015.72 1015.66 1015.59
1011.39 1011.52 1011.59 1011.62 1011.63 1011.66 1011.71 1011.80 1011.89 1011.95 1011.95 1011.84 1011.62 1011.28 1010.86 1010.39 1009.95 1009.60 1009.38 1009.32 1009.43 1009.70 1010.07 1010.50 1010.94 1011.35 1011.70 1011.99 1012.25 1012.50 1012.77 1013.09 1013.48 1013.92 1014.40 1014.88 1015.33 1015.71 1016.00 1016.20 1016.30 1016.33 1016.32 1016.27
1011.33 1011.45 1011.50 1011.51 1011.48 1011.46 1011.46 1011.49 1011.52 1011.54 1011.52 1011.42 1011.23 1010.94 1010.58 1010.18 1009.80 1009.47 1009.26 1009.18 1009.24 1009.44 1009.75 1010.12 1010.51 1010.90 1011.27 1011.62 1011.95 1012.29 1012.66 1013.08 1013.56 1014.09 1014.64 1015.19 1015.70 1016.14 1016.48 1016.73 1016.88 1016.95 1016.97 1016.95
1011.27 1011.38 1011.43 1011.44 1011.41 1011.38 1011.37 1011.37 1011.39 1011.40 1011.38 1011.30 1011.14 1010.89 1010.57 1010.21 1009.84 1009.51 1009.27 1009.13 1009.12 1009.23 1009.44 1009.74 1010.09 1010.47 1010.86 1011.26 1011.67 1012.11 1012.59 1013.12 1013.70 1014.31 1014.93 1015.54 1016.09 1016.57 1016.95 1017.23 1017.40 1017.50 1017.54 1017.53
1011.23 1011.35 1011.41 1011.44 1011.44 1011.44 1011.44 1011.47 1011.50 1011.53 1011.52 1011.46 1011.33 1011.11 1010.81 1010.46 1010.08 1009.73 1009.42 1009.21 1009.11 1009.12 1009.25 1009.47 1009.78 1010.14 1010.55 1011.01 1011.50 1012.03 1012.61 1013.23 1013.90 1014.58 1015.25 1015.90 1016.48 1016.97 1017.36 1017.64 1017.83 1017.93 1017.97 1017.97
1011.26 1011.38 1011.46 1011.52 1011.57 1011.61 1011.66 1011.72 1011.79 1011.85 1011.87 1011.83 1011.72 1011.51 1011.23 1010.87 1010.47 1010.07 1009.71 1009.42 1009.23 1009.15 1009.20 1009.36 1009.63 1009.99 1010.42 1010.92 1011.48 1012.09 1012.75 1013.44 1014.16 1014.89 1015.59 1016.25 1016.83 1017.32 1017.71 1017.98 1018.16 1018.25 1018.29 1018.28
1011.39 1011.50 1011.61 1011.70 1011.79 1011.87 1011.97 1012.07 1012.18 1012.26 1012.31 1012.29 1012.19 1011.99 1011.70 1011.33 1010.91 1010.47 1010.06 1009.71 1009.46 1009.32 1009.30 1009.42 1009.67 1010.02 1010.47 1011.01 1011.62 1012.29 1013.00 1013.74 1014.50 1015.24 1015.95 1016.60 1017.17 1017.64 1018.01 1018.26 1018.43 1018.51 1018.54 1018.52
1011.63 1011.74 1011.85 1011.96 1012.07 1012.19 1012.32 1012.45 1012.58 1012.68 1012.73 1012.72 1012.62 1012.42 1012.12 1011.74 1011.31 1010.85 1010.41 1010.03 1009.74 1009.56 1009.52 1009.62 1009.86 1010.22 1010.69 1011.25 1011.89 1012.59 1013.34 1014.11 1014.87 1015.62 1016.32 1016.95 1017.50 1017.95 1018.29 1018.53 1018.69 1018.77 1018.80 1018.79
1012.01 1012.09 1012.19 1012.30 1012.41 1012.54 1012.67 1012.80 1012.93 1013.02 1013.06 1013.03 1012.92 1012.71 1012.41 1012.02 1011.59 1011.13 1010.69 1010.31 1010.01 1009.83 1009.79 1009.89 1010.14 1010.51 1010.99 1011.58 1012.24 1012.96 1013.72 1014.49 1015.25 1015.98 1016.66 1017.28 1017.81 1018.24 1018.58 1018.82 1018.98 1019.08 1019.12 1019.13
1012.51 1012.56 1012.62 1012.70 1012.79 1012.89 1013.00 1013.11 1013.20 1013.26 1013.26 1013.20 1013.06 1012.83 1012.52 1012.14 1011.71 1011.27 1010.85 1010.49 1010.22 1010.07 1010.05 1010.17 1010.43 1010.82 1011.32 1011.92 1012.59 1013.31 1014.06 1014.83 1015.58 1016.30 1016.96 1017.56 1018.09 1018.52 1018.87 1019.13 1019.32 1019.44 1019.53 1019.57
1013.12 1013.12 1013.14 1013.18 1013.22 1013.27 1013.33 1013.38 1013.41 1013.41 1013.36 1013.24 1013.05 1012.80 1012.47 1012.08 1011.67 1011.25 1010.87 1010.56 1010.33 1010.22 1010.24 1010.40 1010.68 1011.09 1011.60 1012.20 1012.87 1013.58 1014.32 1015.07 1015.81 1016.51 1017.17 1017.77 1018.30 1018.75 1019.12 1019.42 1019.65 1019.83 1019.97 1020.07
1013.80 1013.76 1013.73 1013.71 1013.70 1013.68 1013.67 1013.64 1013.59 1013.50 1013.37 1013.18 1012.94 1012.64 1012.28 1011.89 1011.50 1011.12 1010.78 1010.52 1010.35 1010.29 1010.36 1010.55 1010.86 1011.28 1011.79 1012.38 1013.04 1013.74 1014.46 1015.19 1015.90 1016.60 1017.25 1017.85 1018.39 1018.87 1019.28 1019.62 1019.91 1020.15 1020.36 1020.53
1014.50 1014.43 1014.36 1014.29 1014.21 1014.12 1014.02 1013.90 1013.75 1013.57 1013.34 1013.07 1012.75 1012.39 1012.01 1011.62 1011.23 1010.89 1010.60 1010.39 1010.28 1010.28 1010.39 1010.62 1010.95 1011.38 1011.89 1012.47 1013.10 1013.77 1014.46 1015.16 1015.85 1016.52 1017.17 1017.77 1018.33 1018.83 1019.28 1019.67 1020.02 1020.32 1020.59 1020.83
Thickness
5809 5805 5804 5812 5818 5821 5818 5814 5810 5814 5825 5821 5819 5822 5829 5834 5832 5829 5827 5823 5819 5816 5817 5814 5810 5806 5802 5796 5790 5785 5781 5777 5773 5770 5767 5763 5761 5761 5759 5757 5755 5753 5752 5751
5794 5796 5812 5816 5814 5812 5811 5806 5807 5811 5820 5818 5816 5819 5830 5832 5830 5830 5828 5825 5821 5819 5816 5812 5809 5806 5802 5797 5792 5787 5782 5779 5775 5773 5770 5767 5765 5763 5761 5758 5756 5753 5752 5751
5792 5804 5811 5805 5801 5800 5803 5805 5806 5804 5811 5818 5814 5812 5822 5829 5832 5832 5832 5831 5828 5823 5819 5814 5810 5807 5804 5799 5795 5791 5786 5782 5777 5774 5770 5768 5763 5761 5760 5758 5756 5755 5753 5752
5792 5800 5798 5797 5798 5800 5795 5810 5807 5803 5801 5804 5808 5800 5817 5825 5825 5827 5829 5831 5830 5828 5825 5819 5814 5809 5806 5803 5798 5792 5787 5782 5778 5774 5770 5766 5762 5759 5760 5760 5759 5756 5754 5753
5786 5793 5790 5790 5800 5802 5804 5809 5805 5804 5801 5800 5805 5799 5814 5823 5818 5824 5828 5830 5831 5831 5827 5821 5817 5813 5809 5806 5801 5795 5788 5783 5779 5775 5771 5767 5764 5763 5762 5761 5758 5756 5755 5754
5791 5797 5798 5800 5806 5805 5803 5800 5798 5800 5800 5781 5797 5794 5802 5821 5820 5824 5829 5830 5830 5830 5827 5822 5819 5814 5809 5806 5802 5795 5788 5783 5780 5776 5772 5768 5765 5763 5761 5759 5757 5755 5754 5754
5770 5782 5796 5803 5793 5795 5796 5787 5774 5770 5773 5781 5799 5792 5804 5823 5827 5826 5825 5827 5828 5829 5825 5820 5816 5811 5807 5803 5800 5795 5788 5782 5779 5775 5771 5768 5765 5763 5761 5759 5757 5755 5755 5754
5761 5765 5785 5795 5795 5790 5792 5794 5777 5766 5773 5786 5786 5787 5811 5825 5827 5827 5827 5827 5826 5825 5823 5819 5816 5811 5806 5803 5799 5794 5787 5782 5779 5775 5771 5769 5766 5765 5763 5760 5758 5756 5756 5756
5770 5771 5791 5797 5802 5800 5787 5791 5808 5793 5785 5781 5788 5796 5810 5821 5820 5821 5821 5821 5821 5821 5820 5818 5815 5812 5807 5803 5798 5793 5787 5782 5779 5776 5773 5769 5767 5764 5761 5759 5756 5756 5756 5756
5779 5768 5778 5789 5792 5793 5800 5800 5789 5783 5764 5763 5778 5783 5797 5807 5811 5815 5815 5816 5818 5818 5817 5816 5813 5810 5806 5802 5796 5792 5787 5781 5778 5775 5771 5769 5765 5762 5759 5757 5754 5754 5754 5754
5779 5765 5767 5774 5774 5779 5780 5784 5787 5787 5786 5770 5767 5785 5815 5813 5814 5813 5814 5815 5815 5816 5814 5811 5809 5806 5802 5798 5794 5788 5783 5779 5775 5772 5769 5765 5763 5760 5757 5755 5753 5752 5752 5751
5772 5769 5762 5771 5787 5796 5791 5789 5785 5772 5769 5777 5779 5790 5817 5817 5818 5816 5813 5812 5813 5812 5810 5808 5804 5800 5796 5793 5789 5784 5780 5775 5772 5769 5766 5762 5759 5757 5754 5752 5751 5749 5748 5748
5765 5757 5745 5750 5761 5774 5779 5788 5792 5792 5785 5776 5773 5787 5809 5812 5813 5813 5811 5809 5807 5805 5804 5802 5799 5794 5790 5787 5783 5779 5775 5772 5769 5767 5762 5758 5755 5752 5750 5748 5746 5745 5744 5744
5766 5757 5755 5754 5765 5774 5770 5777 5785 5786 5775 5775 5781 5792 5798 5803 5805 5807 5807 5805 5804 5800 5798 5796 5792 5788 5785 5781 5777 5774 5771 5768 5766 5762 5758 5754 5750 5748 5746 5744 5742 5741 5740 5740
5758 5751 5758 5770 5777 5779 5776 5776 5779 5779 5785 5782 5787 5791 5800 5804 5806 5805 5805 5802 5798 5795 5793 5790 5787 5783 5779 5775 5772 5769 5766 5763 5760 5757 5753 5750 5747 5744 5742 5739 5738 5736 5735 5735
5749 5749 5753 5755 5766 5770 5770 5777 5779 5780 5785 5787 5790 5792 5807 5808 5805 5801 5799 5798 5794 5790 5788 5786 5782 5778 5774 5771 5768 5764 5761 5758 5755 5751 5748 5745 5742 5740 5737 5734 5733 5731 5730 5729
5743 5742 5741 5746 5757 5757 5753 5772 5777 5779 5787 5788 5783 5793 5801 5796 5795 5795 5795 5794 5791 5788 5785 5782 5778 5774 5770 5768 5764 5759 5756 5753 5750 5746 5743 5740 5737 5734 5732 5730 5728 5727 5725 5722
5735 5736 5742 5746 5741 5727 5764 5786 5787 5782 5785 5791 5793 5796 5795 5794 5794 5794 5794 5791 5788 5785 5781 5777 5775 5771 5768 5765 5761 5756 5753 5749 5745 5741 5738 5735 5732 5729 5726 5723 5722 5720 5719 5716
5734 5732 5738 5740 5734 5743 5757 5772 5777 5773 5774 5788 5787 5788 5789 5789 5786 5784 5788 5788 5784 5782 5777 5774 5772 5768 5764 5760 5757 5752 5748 5744 5740 5736 5732 5730 5728 5724 5720 5718 5715 5714 5711 5708
5725 5729 5734 5734 5731 5730 5754 5771 5778 5773 5762 5780 5782 5779 5779 5779 5776 5777 5779 5780 5778 5775 5772 5768 5765 5762 5757 5754 5751 5746 5741 5738 5733 5730 5727 5725 5722 5719 5715 5712 5709 5707 5704 5701
5713 5716 5724 5728 5730 5743 5756 5766 5766 5749 5756 5773 5776 5774 5773 5773 5777 5775 5774 5770 5768 5766 5763 5761 5757 5752 5749 5747 5744 5738 5734 5730 5727 5725 5721 5719 5716 5713 5710 5706 5703 5700 5697 5694
5716 5719 5718 5726 5724 5730 5750 5756 5754 5753 5762 5767 5769 5769 5768 5766 5767 5766 5763 5760 5759 5756 5754 5752 5748 5743 5740 5738 5735 5730 5725 5723 5721 5717 5714 5711 5709 5707 5704 5700 5696 5693 5690 5686
5711 5718 5728 5727 5728 5734 5745 5747 5749 5753 5753 5757 5761 5762 5761 5758 5756 5754 5752 5751 5750 5748 5745 5743 5739 5735 5732 5729 5727 5722 5717 5715 5713 5709 5706 5703 5701 5698 5696 5693 5689 5687 5684 5682
5700 5706 5712 5714 5721 5728 5733 5738 5742 5746 5747 5752 5754 5755 5754 5751 5748 5745 5743 5742 5741 5739 5737 5735 5731 5726 5722 5720 5717 5714 5711 5709 5705 5701 5697 5694 5691 5688 5686 5685 5684 5682 5679 5676
5691 5697 5703 5705 5711 5718 5723 5727 5732 5736 5740 5743 5746 5747 5746 5743 5740 5738 5735 5733 5732 5730 5729 5727 5722 5717 5713 5711 5708 5706 5704 5702 5697 5693 5689 5686 5683 5679 5674 5670 5666 5667 5662 5662
5685 5689 5693 5698 5703 5709 5711 5718 5724 5726 5729 5732 5733 5734 5735 5734 5731 5730 5727 5725 5723 5721 5719 5716 5713 5709 5705 5703 5700 5698 5697 5694 5691 5686 5682 5680 5676 5672 5668 5663 5655 5647 5647 5645